Location: Little Bennett Regional Park
(39.2840°N, 77.2890°W)
Time: 00:27:40
(UTC-05:00)

Daily predictions for brighter satellites

Satellite Brightness Start Highest point End
(mag) Time Altitude Azimuth Time Altitude Azimuth Time Altitude Azimuth
Cosmos 2369 Rocket 4.5 03:14:21 18° NNE 03:14:21 18° NNE 03:15:49 10° NNE
Lacrosse 5 4.3 03:28:18 19° NE 03:28:18 19° NE 03:29:49 10° NE
USA 234 4.0 03:35:46 10° ENE 03:41:54 44° SE 03:41:54 44° SE
ATLAS 5 CENTAUR R/B 3.9 03:46:24 23° NNE 03:46:24 23° NNE 03:48:21 10° NNE
Cosmos 1943 Rocket 3.3 03:51:55 38° NE 03:51:55 38° NE 03:55:22 10° NNE
CZ-4C R/B 3.4 03:54:44 35° ESE 03:54:44 35° ESE 03:59:51 10° NE
CZ-4B R/B 3.7 03:58:57 10° NNE 04:03:30 57° NE 04:03:30 57° NE
ADEOS II 2.6 04:10:15 10° NNE 04:14:11 52° NNE 04:14:11 52° NNE
Cosmos 676 Rocket 4.3 04:20:01 24° N 04:23:13 65° ENE 04:28:30 10° SSE
Okean O Rocket 4.1 04:19:23 10° N 04:19:45 12° N 04:19:45 12° N
Cosmos 1140 Rocket 4.4 04:27:27 10° N 04:32:30 47° ENE 04:37:31 10° SE
Cosmos 2221 Rocket 3.9 04:38:26 38° SSE 04:40:06 68° E 04:44:39 10° NNE
Meteor 1-26 Rocket 4.1 04:41:38 27° S 04:44:53 86° W 04:50:32 10° N
Nadezhda 2 Rocket 4.3 04:40:52 10° NNW 04:46:54 64° W 04:52:57 10° S
Okean 1-7 3.2 04:45:42 28° S 04:47:53 69° E 04:52:08 10° NNE
Cosmos 1656 Rocket 3.6 04:50:01 38° SSW 04:52:19 80° WNW 04:58:01 10° NNE
Cosmos 2219 3.6 04:48:59 10° NNW 04:54:37 62° ENE 05:00:11 10° SE
Cosmos 2369 Rocket 3.9 04:56:10 18° NNW 04:56:10 18° NNW 04:58:42 10° N
Meteor 1-31 Rocket 2.6 04:54:20 10° N 04:58:14 80° WNW 04:58:26 76° WSW
GEOS 3 Rocket 3.6 04:56:11 10° SSE 05:01:10 57° WSW 05:02:58 37° WNW
ATLAS CENTAUR R/B 4.0 04:59:20 34° W 05:01:58 45° SW 05:18:25 10° SSE
Cosmos 1417 Rocket 4.3 05:00:54 10° SSW 05:07:03 70° W 05:13:11 10° N
Cosmos 1782 Rocket 3.5 05:03:36 10° NNW 05:08:02 65° W 05:12:24 10° S
Lacrosse 5 2.9 05:07:32 27° NW 05:08:06 28° NNW 05:12:27 10° NNE
Cosmos 1745 Rocket 4.1 05:01:57 10° N 05:08:07 74° E 05:14:13 10° SSE
Cosmos 1954 Rocket 4.0 05:06:49 10° NNW 05:12:02 57° WSW 05:17:13 10° S
Cosmos 1420 Rocket 3.9 05:13:54 15° SSW 05:18:05 65° WNW 05:23:15 10° NNE
Meteor 2-10 Rocket 3.8 05:17:38 29° WSW 05:19:28 39° WNW 05:24:14 10° N
SKYMED 2 3.8 05:15:13 10° SSE 05:19:31 71° ENE 05:23:51 10° N
Okean-O 2.9 05:17:21 10° N 05:21:33 44° WNW 05:23:59 22° SW
ERS-2 4.4 05:21:26 10° NNW 05:21:59 13° NNW 05:21:59 13° NNW
NOAA 6 3.9 05:19:06 10° N 05:24:16 77° WNW 05:29:23 10° SSW
Tiangong 1 1.5 05:24:16 40° NNW 05:24:39 42° N 05:27:29 10° ENE
USA 234 3.5 05:18:42 10° NE 05:24:59 53° NW 05:29:16 21° WSW
Feng Yun 1-1 Rocket 4.5 05:19:30 10° N 05:25:14 54° WNW 05:30:58 10° SW
ATLAS 5 CENTAUR R/B 3.6 05:27:58 15° NW 05:28:45 15° NW 05:31:50 10° N
Cosmos 1943 Rocket 3.6 05:33:27 18° WNW 05:34:08 18° NW 05:37:51 10° N
Okean 2 Rocket 3.4 05:32:25 10° NNW 05:36:33 41° W 05:40:40 10° SSW
Radarsat Rocket 4.2 05:31:13 10° NNE 05:38:26 80° WNW 05:44:43 10° SSW
Thor Agena Rocket 4.0 05:35:19 10° SSW 05:40:09 39° W 05:44:59 10° NNW
CZ-4C R/B 2.9 05:39:58 19° W 05:43:09 34° NW 05:48:35 10° NNE
Cosmos 1607 3.9 05:38:03 10° SSW 05:44:10 84° WNW 05:50:22 10° NNE
Meteor 1-28 Rocket 3.1 05:40:46 10° S 05:44:28 81° WSW 05:48:14 10° NNW
ATLAS 3B R/B 2.9 05:40:07 10° SW 05:47:44 83° WNW 05:55:06 10° NNE
Delta 2 Rocket 4.3 05:44:49 16° WSW 05:48:35 55° S 05:53:51 10° E
Cosmos 1110 Rocket 4.2 05:45:36 10° S 05:50:44 73° ESE 05:55:55 10° NNE
Lacrosse 5 rocket 2.5 05:49:35 10° NNW 05:52:54 33° NE 05:56:12 10° ESE
Okean 1 Rocket 4.3 05:48:42 10° N 05:52:57 45° E 05:57:07 10° SSE
Meteor 1-27 Rocket 4.0 05:47:24 10° S 05:53:10 81° E 05:59:04 10° NNE
Meteor 1-20 Rocket 4.5 05:48:53 10° NNW 05:54:16 45° W 05:59:32 10° SSW
ADEOS II 3.8 05:52:31 10° NW 05:54:30 12° WNW 05:55:09 12° WNW
S3M 4.5 05:50:00 10° SW 05:55:49 37° WNW 06:01:36 10° N
Cosmos 2151 Rocket 3.7 05:51:49 10° NNW 05:56:14 56° W 06:00:35 10° S
CSL-04 Rocket 3.9 05:51:18 10° NNE 05:56:43 78° ESE 06:02:10 10° S
Cosmos 1741 Rocket 4.2 05:52:37 10° NNW 05:57:38 47° WSW 06:02:39 10° S
Cosmos 2082 4.4 05:54:13 10° NNW 05:59:49 58° ENE 06:05:21 10° SE
COSMO-SKYMED 1 3.3 06:03:47 10° SSW 06:07:39 32° W 06:11:34 10° NNW
Cosmos 1606 3.5 06:06:05 10° SW 06:09:31 30° WNW 06:13:01 10° NNW
Cosmos 1782 3.9 06:06:46 10° SW 06:10:01 24° WNW 06:13:16 10° NNW
Cosmos 1602 3.7 06:07:13 10° NNW 06:11:11 71° W 06:15:06 10° S
CZ-2C R/B 2.9 06:08:28 10° NNE 06:13:23 68° ESE 06:18:26 10° S
Cosmos 2369 3.7 06:07:54 10° SSW 06:13:33 88° WNW 06:19:14 10° NNE
Cosmos 2297 Rocket 2.4 06:16:53 10° NNW 06:22:34 78° ENE 06:28:12 10° SSE
